[[{"header":{"parameterUnit":"m.s-1","parameterCategory":1,"la1":30.2991,"la2":30.254,"lo1":-89.0895,"lo2":-89.0444,"dy":0.0017,"dx":0.0017,"nx":28,"ny":28,"refTime":"2025-03-16T03:00:00:Z","depth":0,"parameterNumber":2,"parameterNumberName":"U-component_of_WINDS"},"data":[0,0,0,0,0,0,0,0,0,0,0,0,0,0,0,0,0,0,0,0,0,0,0,0,0,0,0,0,0,0,0,0,0,0,0,0,0,0,0,0,0,0,0,0,0,0,0,0,0,0,0,0,0,0,0,0,0,0,4.8186,4.8187,0,4.8315,4.8317,4.8318,4.8274,4.8271,4.8268,4.8266,4.84,4.8406,4.8412,0,0,0,0,0,0,0,0,0,0,0,0,0,4.7902,4.7908,4.8185,4.8187,4.8189,4.8315,4.8317,4.8319,4.8275,4.8271,4.8268,4.8264,4.8398,4.8405,4.8413,0,0,0,0,0,0,0,0,0,0,0,0,0,4.8028,4.7909,4.8185,4.8182,4.8183,4.8315,4.8317,4.8319,4.8275,4.8271,4.8267,4.8263,4.8395,4.8404,4.8414,4.8557,0,0,4.8442,4.8446,0,0,0,0,0,0,0,0,4.8021,4.8038,4.8181,4.8182,4.8184,4.8274,4.8266,4.8399,4.8276,4.824,4.8266,4.8261,4.8362,4.8373,4.8407,4.8563,4.8569,4.8443,4.8449,4.8453,4.8455,0,0,0,0,0,0,0,4.8012,4.8033,4.8237,4.8183,4.8185,4.8175,4.8188,4.8291,4.8323,4.8243,4.824,4.8256,4.8362,4.8398,4.841,4.8571,4.8443,4.8451,4.8457,4.846,4.8854,4.8858,0,0,0,0,0,0,4.8002,4.8026,4.8233,4.8241,4.809,4.8184,4.8198,4.825,4.8322,4.8329,4.826,4.8254,4.8384,4.8399,4.8415,4.8589,4.8453,4.8461,4.8467,4.8849,4.8855,4.886,0,0,0,0,0,0,4.7997,4.8021,4.8228,4.8133,4.8158,4.8193,4.8251,4.8254,4.8291,4.8335,4.834,4.8291,4.8382,4.8401,4.8522,4.8593,4.8466,4.8474,4.8843,4.8851,4.8857,4.8937,0,0,0,0,0,0,4.7989,4.8019,4.8073,4.8134,4.8163,4.8333,4.8255,4.826,4.8307,4.83,4.8366,4.8372,4.838,4.8509,4.8532,4.8603,4.8481,4.8837,4.8846,4.8855,4.8928,4.8946,4.8962,0,0,0,0,0,4.7979,4.809,4.8076,4.8102,4.8231,4.8337,4.8353,4.8359,4.8313,4.8368,4.8397,4.837,4.8581,4.8521,4.8547,4.8622,4.8833,4.8844,4.8854,4.8921,4.8943,4.8961,0,0,0,0,0,0,4.8037,4.8098,4.8083,4.8218,4.8273,4.8329,4.8398,4.8382,4.8451,4.8442,4.8447,4.8462,4.8587,4.8616,4.8549,4.8766,4.87,4.8717,4.8742,4.8763,4.8779,4.877,4.8489,0,0,0,0,0,4.8066,4.8145,4.8195,4.8309,4.8337,4.8363,4.8409,4.8409,4.8466,4.8489,4.8526,4.8583,4.8662,4.8714,4.8789,4.8933,4.8947,4.8997,4.9014,4.9027,4.9042,4.9122,4.9145,4.8896,4.8896,4.8895,0,0,4.8125,4.8169,4.8218,4.8322,4.8364,4.8448,4.8383,4.8473,4.8536,4.8503,4.862,4.8649,4.8713,4.8846,4.8907,4.8875,4.9114,4.9041,4.9051,4.9059,4.9136,4.9159,4.918,4.8903,4.8902,4.8901,0,0,4.8277,4.8317,4.8418,4.8462,4.8527,4.8544,4.8568,4.8628,4.8646,4.8764,4.8741,4.8816,4.8952,4.8999,4.9041,4.9213,4.9192,4.9238,4.9324,4.9403,4.9422,4.944,4.9503,4.9526,4.9252,4.9252,4.9252,0,4.8343,4.8467,4.8471,4.8565,4.8612,4.8586,4.8689,4.8731,4.8818,4.8851,4.8814,4.8986,4.9027,4.9172,4.9214,4.9248,4.9278,4.923,4.9419,4.9437,4.9453,4.9514,4.9537,4.9257,4.9256,4.9256,4.9255,0,4.8547,4.8633,4.8707,4.8792,4.8847,4.8944,4.8964,4.902,4.9016,4.9037,4.9159,4.9207,4.9293,4.9327,4.9324,4.9473,4.9451,4.9417,4.9351,4.9482,4.9539,4.9562,4.9264,4.9263,4.9261,4.926,0,0,4.8738,4.8825,4.8852,4.8891,4.8962,4.9029,4.9127,4.9211,4.9259,4.932,4.9403,4.952,4.9489,4.9537,4.9538,4.9607,4.9743,4.9565,4.9566,4.9597,4.9913,4.9939,4.9966,4.973,4.9734,4.9738,4.9908,0,4.8896,4.9067,4.9074,4.923,4.9312,4.929,4.9375,4.9428,4.9452,4.9525,4.9551,4.9634,4.9586,4.9615,4.9682,4.9712,4.9807,4.97,4.9808,4.9812,4.9794,4.9995,5.0023,5.0181,4.993,4.9934,4.9937,0,4.9104,4.9172,4.9336,4.9398,4.9432,4.9508,4.9587,4.9657,4.9718,4.973,4.9785,4.9778,4.9879,4.9809,4.995,4.9877,4.9922,4.9944,4.9951,4.9961,4.9883,5.0013,5.0232,5.0256,4.9972,4.9969,4.9966,0,4.9229,4.9362,4.9478,4.9512,4.9586,4.964,4.9674,4.9731,4.9781,4.985,4.9884,4.9964,5.0008,5.0071,5.0086,5.0034,5.0228,5.0159,5.0242,5.0242,5.0284,5.0282,5.0515,5.0312,5.0311,5.0311,5.031,0,4.9406,4.9508,4.9535,4.9606,4.9721,4.9729,4.9842,4.9872,4.9923,5.0001,4.9987,5.006,5.0075,5.0153,5.0165,5.0281,5.0301,5.0315,5.0317,5.0317,5.0315,5.0347,5.0337,5.0317,5.0316,5.0315,5.0313,0,4.9565,4.9587,4.9712,4.9773,4.979,4.9872,4.9924,4.9994,5.0016,5.0115,5.0139,5.0174,5.0264,5.0286,5.0393,5.0402,5.054,5.0531,5.0519,5.0519,5.0602,5.0594,5.0864,5.09,5.0672,5.0675,5.0676,0,4.9677,4.9754,4.9824,4.9875,4.9911,4.9993,5.0045,5.0057,5.0112,5.0189,5.025,5.0339,5.0411,5.0557,5.0592,5.0675,5.0669,5.0758,5.0681,5.0679,5.0672,5.0668,5.0677,5.0773,5.0775,5.0777,5.0779,0,4.9873,4.9881,4.9956,5.0037,5.0099,5.0163,5.0224,5.0267,5.0287,5.035,5.0443,5.0498,5.0609,5.0698,5.0782,5.0817,5.0803,5.0803,5.0827,5.0827,5.0818,5.0826,5.056,5.0796,5.0795,5.0793,5.0792,5.0792,5.0013,5.0082,5.0142,5.0227,5.0275,5.0332,5.0401,5.0432,5.051,5.06,5.0603,5.0704,5.0766,5.0877,5.0918,5.0998,5.0971,5.1005,5.1014,5.1023,5.1031,5.0805,5.1013,5.1013,5.1012,5.1012,5.1012,0,5.021,5.0248,5.0327,5.0413,5.048,5.046,5.0527,5.0585,5.0674,5.0733,5.0804,5.0912,5.0999,5.1042,5.1129,5.1185,5.118,5.1207,5.1204,5.1213,5.1049,5.1021,5.121,5.121,5.121,5.1209,5.1209,5.1209,5.0321,5.0437,5.0453,5.0593,5.0631,5.073,5.077,5.0824,5.0871,5.0991,5.1064,5.1091,5.1145,5.1235,5.1315,5.1326,5.1359,5.139,5.1397,5.1244,5.1224,5.1205,5.1178,5.1397,5.1397,5.1554,5.1555,5.1556]},{"header":{"parameterUnit":"m.s-1","parameterCategory":1,"la1":30.2991,"la2":30.254,"lo1":-89.0895,"lo2":-89.0444,"dy":0.0017,"dx":0.0017,"nx":28,"ny":28,"refTime":"2025-03-16T03:00:00:Z","depth":0,"parameterNumber":3,"parameterNumberName":"V-component_of_WINDS"},"data":[0,0,0,0,0,0,0,0,0,0,0,0,0,0,0,0,0,0,0,0,0,0,0,0,0,0,0,0,0,0,0,0,0,0,0,0,0,0,0,0,0,0,0,0,0,0,0,0,0,0,0,0,0,0,0,0,0,0,-6.0478,-6.048,0,-6.0681,-6.0684,-6.0686,-6.0664,-6.0661,-6.0658,-6.0655,-6.0864,-6.0872,-6.088,0,0,0,0,0,0,0,0,0,0,0,0,0,-6.0071,-6.0079,-6.0477,-6.048,-6.0482,-6.0681,-6.0684,-6.0686,-6.0665,-6.0661,-6.0657,-6.0654,-6.0861,-6.0871,-6.0881,0,0,0,0,0,0,0,0,0,0,0,0,0,-6.0258,-6.0081,-6.0477,-6.0496,-6.0499,-6.068,-6.0684,-6.0687,-6.0666,-6.0661,-6.0656,-6.0652,-6.0857,-6.087,-6.0882,-6.1058,0,0,-6.0922,-6.0927,0,0,0,0,0,0,0,0,-6.0248,-6.0273,-6.049,-6.0495,-6.0499,-6.0642,-6.0617,-6.0811,-6.0667,-6.0603,-6.0655,-6.0649,-6.0794,-6.0812,-6.086,-6.1067,-6.1076,-6.0923,-6.093,-6.0936,-6.094,0,0,0,0,0,0,0,-6.0235,-6.0265,-6.0558,-6.0494,-6.0499,-6.0494,-6.0516,-6.0654,-6.0723,-6.0608,-6.0607,-6.0631,-6.0795,-6.0848,-6.0865,-6.1079,-6.0922,-6.0934,-6.0942,-6.0947,-6.1443,-6.1449,0,0,0,0,0,0,-6.0217,-6.0254,-6.0551,-6.0564,-6.0359,-6.0506,-6.0529,-6.0601,-6.0721,-6.0735,-6.0635,-6.0629,-6.0829,-6.085,-6.0872,-6.1087,-6.0936,-6.0948,-6.0955,-6.1438,-6.1445,-6.1451,0,0,0,0,0,0,-6.0209,-6.0244,-6.0543,-6.0409,-6.0447,-6.0518,-6.0599,-6.0608,-6.0661,-6.0742,-6.0754,-6.0676,-6.0826,-6.0854,-6.1012,-6.1094,-6.0954,-6.0965,-6.1431,-6.144,-6.1448,-6.1518,0,0,0,0,0,0,-6.0197,-6.0241,-6.0308,-6.0411,-6.0454,-6.068,-6.0604,-6.0615,-6.0683,-6.0677,-6.0784,-6.0797,-6.0824,-6.0993,-6.1025,-6.1109,-6.0975,-6.1424,-6.1435,-6.1445,-6.1508,-6.1527,-6.1543,0,0,0,0,0,-6.0183,-6.0319,-6.0311,-6.0347,-6.0539,-6.0684,-6.0709,-6.0738,-6.0689,-6.0758,-6.081,-6.0793,-6.108,-6.101,-6.1045,-6.1135,-6.1419,-6.1432,-6.1444,-6.15,-6.1524,-6.1543,0,0,0,0,0,0,-6.0224,-6.0333,-6.0326,-6.0499,-6.0583,-6.0681,-6.0767,-6.0761,-6.086,-6.0851,-6.0883,-6.0907,-6.1067,-6.1116,-6.1036,-6.1312,-6.1243,-6.1263,-6.1274,-6.1296,-6.1314,-6.1299,-6.0986,0,0,0,0,0,-6.0253,-6.0362,-6.0451,-6.0596,-6.0638,-6.0696,-6.076,-6.0775,-6.0863,-6.0899,-6.0962,-6.1049,-6.1158,-6.123,-6.1335,-6.1515,-6.1539,-6.1594,-6.1612,-6.1626,-6.1643,-6.1744,-6.1771,-6.1491,-6.1491,-6.1491,0,0,-6.0315,-6.0388,-6.0454,-6.0606,-6.0673,-6.0786,-6.0726,-6.0847,-6.0931,-6.0917,-6.1071,-6.1121,-6.1219,-6.139,-6.1468,-6.1436,-6.1726,-6.1642,-6.1652,-6.1662,-6.176,-6.1786,-6.181,-6.15,-6.1498,-6.1497,0,0,-6.0485,-6.055,-6.0679,-6.0747,-6.0849,-6.0887,-6.0918,-6.1018,-6.1051,-6.1205,-6.1198,-6.1299,-6.1486,-6.1557,-6.1618,-6.1818,-6.1806,-6.1851,-6.1943,-6.2041,-6.2063,-6.2083,-6.2156,-6.2182,-6.1868,-6.1868,-6.1868,0,-6.0549,-6.0718,-6.0746,-6.087,-6.0937,-6.093,-6.1061,-6.1126,-6.1257,-6.1305,-6.1267,-6.1504,-6.1569,-6.1757,-6.1806,-6.1855,-6.1893,-6.1839,-6.2058,-6.2078,-6.2097,-6.2167,-6.2194,-6.1873,-6.1872,-6.1872,-6.1871,0,-6.0792,-6.091,-6.1002,-6.113,-6.1208,-6.1334,-6.1382,-6.1458,-6.1467,-6.1509,-6.1668,-6.1746,-6.1868,-6.1914,-6.1923,-6.2104,-6.2082,-6.205,-6.1982,-6.2128,-6.2194,-6.2221,-6.188,-6.1878,-6.1876,-6.1875,0,0,-6.0994,-6.1137,-6.117,-6.1229,-6.1342,-6.1434,-6.156,-6.168,-6.1746,-6.1836,-6.1945,-6.2105,-6.2078,-6.2147,-6.2164,-6.225,-6.2406,-6.2209,-6.2212,-6.2244,-6.2613,-6.2636,-6.2667,-6.2399,-6.2404,-6.2408,-6.2605,0,-6.1177,-6.1402,-6.1431,-6.1631,-6.1741,-6.1737,-6.1848,-6.1929,-6.1972,-6.2073,-6.212,-6.2234,-6.2188,-6.223,-6.2315,-6.2369,-6.248,-6.2355,-6.2501,-6.2506,-6.2478,-6.2701,-6.2727,-6.2909,-6.2631,-6.2635,-6.2639,0,-6.142,-6.1519,-6.173,-6.1829,-6.1877,-6.1976,-6.2089,-6.2185,-6.2278,-6.2303,-6.2381,-6.2388,-6.2521,-6.2447,-6.2631,-6.2545,-6.2607,-6.2642,-6.265,-6.2666,-6.2582,-6.2725,-6.2967,-6.2995,-6.2679,-6.2676,-6.2673,0,-6.1548,-6.1734,-6.1884,-6.1935,-6.2054,-6.2124,-6.2177,-6.2266,-6.2337,-6.2436,-6.2482,-6.2595,-6.2658,-6.2746,-6.2784,-6.2726,-6.2967,-6.2895,-6.2992,-6.2992,-6.3044,-6.3041,-6.3302,-6.3081,-6.3081,-6.308,-6.308,0,-6.175,-6.188,-6.1944,-6.2037,-6.2183,-6.2216,-6.2359,-6.241,-6.2489,-6.2592,-6.2595,-6.2692,-6.2735,-6.284,-6.287,-6.3019,-6.3047,-6.3072,-6.3079,-6.3073,-6.307,-6.3114,-6.3103,-6.3088,-6.3086,-6.3085,-6.3083,0,-6.1918,-6.1966,-6.2131,-6.2231,-6.2259,-6.2362,-6.2448,-6.2539,-6.2581,-6.2712,-6.2745,-6.2812,-6.2935,-6.2981,-6.3131,-6.3151,-6.3324,-6.332,-6.3293,-6.3295,-6.3391,-6.3382,-6.3691,-6.3734,-6.3484,-6.3486,-6.3488,0,-6.2044,-6.2144,-6.2255,-6.2325,-6.2381,-6.2493,-6.2565,-6.2602,-6.2678,-6.2793,-6.287,-6.2993,-6.3093,-6.329,-6.3352,-6.3467,-6.3467,-6.3567,-6.3484,-6.3476,-6.3471,-6.3465,-6.3476,-6.3583,-6.3586,-6.3588,-6.3589,0,-6.2264,-6.2284,-6.2388,-6.2502,-6.2589,-6.2681,-6.277,-6.2826,-6.2877,-6.2962,-6.3088,-6.3166,-6.332,-6.3443,-6.3561,-6.3616,-6.3613,-6.3615,-6.3644,-6.364,-6.3621,-6.3634,-6.3337,-6.3608,-6.3606,-6.3605,-6.3604,-6.3603,-6.2417,-6.2506,-6.2599,-6.2716,-6.2787,-6.2871,-6.2961,-6.3016,-6.3121,-6.325,-6.3265,-6.3401,-6.3494,-6.3653,-6.3713,-6.3821,-6.3794,-6.3836,-6.3847,-6.3857,-6.3865,-6.3603,-6.3842,-6.3842,-6.3841,-6.3841,-6.3841,0,-6.2638,-6.2698,-6.2806,-6.293,-6.3023,-6.3011,-6.3109,-6.3188,-6.3308,-6.3394,-6.3493,-6.3639,-6.3759,-6.3831,-6.3951,-6.4023,-6.4025,-6.4054,-6.405,-6.4063,-6.3881,-6.3844,-6.4051,-6.4051,-6.4051,-6.4051,-6.4051,-6.4051,-6.2765,-6.2916,-6.2947,-6.3134,-6.3193,-6.3326,-6.3384,-6.3462,-6.3531,-6.3694,-6.3794,-6.384,-6.3922,-6.4048,-6.4157,-6.4175,-6.422,-6.4252,-6.4269,-6.4097,-6.4075,-6.4055,-6.4021,-6.4261,-6.4262,-6.4442,-6.4444,-6.4445]}]]